Overview Statistics Trail Chart Weather Telemetry Raw packets
 

This is the latest recevied weather packets stored in our database for station/object K5FEP. If no packets are shown the sender has not sent any weather packets the latest 10 day(s).

<< 37 38 39 40 41 42 43 >>
Time Temp. Humidity Pressure Rain* Wind** Luminosity Snow
1788382951 37.78° C 35% 1015.4 hPa 0 mm - 399 W/m² -
1788382649 38.33° C 35% 1015.6 hPa 0 mm - 414 W/m² -
1788382344 38.33° C 35% 1015.5 hPa 0 mm - 434 W/m² -
1788382039 37.78° C 36% 1015.7 hPa 0 mm - 467 W/m² -
1788381734 37.78° C 36% 1015.6 hPa 0 mm - 505 W/m² -
1788381430 37.78° C 36% 1015.8 hPa 0 mm - 502 W/m² -
1788381129 37.22° C 36% 1015.8 hPa 0 mm - 512 W/m² -
1788380824 37.22° C 37% 1015.7 hPa 0 mm - 494 W/m² -
1788380521 37.22° C 38% 1015.7 hPa 0 mm - 141 W/m² -
1788380217 37.78° C 36% 1015.9 hPa 0 mm - 588 W/m² -
1788379916 37.22° C 35% 1015.7 hPa 0 mm - 590 W/m² -
1788379611 37.22° C 36% 1015.9 hPa 0 mm - 627 W/m² -
1788379307 37.22° C 36% 1016.2 hPa 0 mm - 201 W/m² -
1788379003 37.22° C 36% 1016.1 hPa 0 mm - 468 W/m² -
1788378702 37.78° C 34% 1016.2 hPa 0 mm - 184 W/m² -
1788378401 37.22° C 35% 1016 hPa 0 mm - 687 W/m² -
1788378096 37.22° C 36% 1016.2 hPa 0 mm - 707 W/m² -
1788377792 37.22° C 37% 1016.4 hPa 0 mm - 214 W/m² -
1788377492 37.22° C 37% 1016.4 hPa 0 mm - 326 W/m² -
1788377191 38.33° C 34% 1016.4 hPa 0 mm - 469 W/m² -
1788376890 38.33° C 34% 1016.5 hPa 0 mm - 758 W/m² -
1788376586 37.78° C 35% 1016.7 hPa 0 mm - 785 W/m² -
1788376285 37.78° C 34% 1016.6 hPa 0 mm - 811 W/m² -
1788375981 37.78° C 34% 1016.5 hPa 0 mm - 543 W/m² -
1788375676 37.78° C 34% 1016.6 hPa 0 mm - 273 W/m² -

* Rain latest hour (hover to see other rain measurements)
** Current wind speed in m/s (hover to see current wind gust speed)